Regional Weather Roundup
Issued by NWS Charleston, SC

Current Version | Previous Version | Graphics & Text | Print | Product List | Glossary Off
Versions: 1 2 3 4 5 6 7 8 9 10 11 12 13 14 15 16 17 18 19 20 21 22 23 24 25 26 27 28 29 30 31 32 33 34 35 36 37 38 39 40 41 42 43 44 45 46 47 48 49 50
000 ASUS42 KCHS 191725 RWRCHS REGIONAL WEATHER ROUNDUP NATIONAL WEATHER SERVICE CHARLESTON SC 100 PM EDT FRI SEP 19 2014 NOTE: "FAIR" INDICATES FEW OR NO CLOUDS BELOW 12,000 FEET WITH NO SIGNIFICANT WEATHER AND/OR OBSTRUCTIONS TO VISIBILITY. NOT ALL STATIONS ARE QUALITY CONTROLLED BY THE NATIONAL WEATHER SERVICE. USE DATA WITH CAUTION...ESPECIALLY DEWPOINT OBSERVATIONS. SCZ027-030-031-034>040-042>050-191800- ...SOUTH CAROLINA... CITY SKY/WX TMP DP RH WIND PRES REMARKS N CHARLESTON PTSUNNY 83 67 58 E17 30.07F WATERFRONT PRK N/A 81 N/A N/A E23 N/A FORT JOHNSON NOT AVBL MOUNT PLEASANT FAIR 81 70 69 E9 30.07S JOHNS ISLAND PTSUNNY 81 81 100 E14 30.07S HX 91 PINOPOLIS N/A 81 70 69 E6 30.01S MONCKS CORNER N/A 81 73 78 E6 30.08S SUMMERVILLE PTSUNNY 79 72 78 E5 30.09S BEAUFORT MCAS PTSUNNY 83 71 67 N12G18 30.06S BEAUFORT ARPT PTSUNNY 82 72 69 NE14 30.05F HILTON HEAD IS PTSUNNY 81 72 74 NE12G22 30.07R GEORGETOWN NOT AVBL WALTERBORO CLOUDY 82 64 54 E10 30.07F ORANGEBURG CLOUDY 80 66 62 E6 30.10R BARNWELL FAIR 77 72 83 NE8 30.10F AIKEN CLOUDY 72 72 100 NE8 30.15F MANNING FAIR 82 70 65 E9 30.10S KINGSTREE NOT AVBL COLUMBIA PTSUNNY 77 66 68 E8 30.11F SUMTER PTSUNNY 80 62 55 E10 30.10S FLORENCE PTSUNNY 80 65 59 E13 30.12S MYRTLE BEACH PTSUNNY 81 66 61 NE13 30.11R N MYRTLE BEACH CLOUDY 81 66 60 E13G20 30.11R $$ GAZ063-065-086>088-099>101-113>116-118-119-134-136>141-150-191800- ...GEORGIA... CITY SKY/WX TMP DP RH WIND PRES REMARKS SAVANNAH ARPT PTSUNNY 83 68 60 E8 30.05S HUNTER AAF LGT RAIN 75 73 94 NE6 30.02F FORT STEWART PTSUNNY 84 70 64 SE9 30.03S STATESBORO NOT AVBL SYLVANIA MOSUNNY 83 74 73 N7 30.07F HX 90 CLAXTON FAIR 86 72 62 E6 30.04F HX 92 THOMSON PTSUNNY 77 72 85 NE8 30.15S AUGUSTA-BUSH PTSUNNY 79 67 66 N9 30.08F AUGUSTA-DANIEL PTSUNNY 76 66 71 N9 30.11S SWAINSBORO FAIR 82 73 74 NE9 30.07F VIDALIA PTSUNNY 84 70 61 NE8G17 30.05F ALMA PTSUNNY 83 71 67 VRB5 30.03F WAYCROSS CLOUDY 85 75 71 E7 30.03F HX 94 JESUP FAIR 88 73 62 SE7 30.03F HX 96 BRUNSWICK CLOUDY 84 70 61 E8 30.03F SAINT SIMONS CLOUDY 84 69 60 E9 30.03S $$ SCZ027-028-034-036>038-045-046-048>050-GAZ119-141-191800- ...LAKE AND SUPPLEMENTAL COASTAL OBSERVATIONS... STATION/POSITION TIME TEMP WIND PRES WAVE SWELL AIR SEA DIR/SP/G HT/PER HT/PER/DIR (UTC) (F) (DEG/KT/KT) (MB) (FT/S) (FT/S/D) UPR LAKE MARION NOT AVBL WINYAH BAY 1700 80 70/ 15 1019.0S LAKE MURRAY 1600 69 20/ 2/ 4 1019.6F ACE BASIN NERRS 1700 82 100/ 5 1018.0S FORT PULASKI 1700 80 60/ 15/ 17 1017.7S SAPELO ISLAND 1700 83 80/ 7 1018.0S $$ ANZ835-935-AMZ111-154-330-350-352-354-374-450-454-472-191800- ...C-MAN AND BUOY OBSERVATIONS... STATION/POSITION TIME TEMP WIND PRES WAVE SWELL AIR SEA DIR/SP/G HT/PER HT/PER/DIR (UTC) (F) (DEG/KT/KT) (MB) (FT/S) (FT/S/D) FOLLY BEACH CMAN 1700 78 100/ 16/ 18 1018.6F BUOY 41004 1700 76 82 60/ 19/ 21 1017.4F 4/ 6 2/10 BUOY 41008 1700 81 84 70/ 12/ 14 1017.0R 2/ 9 2/110/ 9 5E ST. MARYS GA 1700 84 N/A 2/11 2/100/11 FRYING PAN BUOY NOT AVBL BUOY 41025 1700 78 50/ 17/ 23 1020.9S 6/ 8 2/ 50/ 9 CAPE LOOKOUT NC 1700 76 60/ 20/ 22 1020.8R BUOY 41002 1650 79 82 60/ 16/ 19 1018.4F 4/ 5 2/ 90/ 9 BUOY 41010 1700 83 85 70/ 10/ 12 1015.4F 3/11 3/ 30/11 BUOY 41012 NOT AVBL ST AUGUSTINE FL 1700 82 90/ 6/ 7 1017.0R CAPERS NEARSHORE 1600 79 110/ 17/ 19 N/A FRIPP NEARSHORE NOT AVBL $$

USA.gov is the U.S. government's official web portal to all federal, state and local government web resources and services.